Regional Weather Roundup
Issued by NWS

Home | Current Version | Previous Version | Graphics & Text | Print | Product List | Glossary On
Versions: 1 2 3 4 5 6 7 8 9 10 11 12 13 14 15 16 17 18 19 20 21 22 23 24 25 26 27 28 29 30 31 32 33 34 35 36 37 38 39 40 41 42 43 44 45 46 47 48 49 50
547
ASUS43 KDMX 081701
RWRIA

WEATHER ROUNDUP FOR IOWA
NATIONAL WEATHER SERVICE DES MOINES IA
1100 AM CST THU DEC 08 2016

NOTE: "FAIR" INDICATES FEW OR NO CLOUDS BELOW 12,000 FEET WITH NO
SIGNIFICANT WEATHER AND/OR OBSTRUCTIONS TO VISIBILITY.

* - THESE STATIONS ARE NOT NWS STATIONS...THUS NOT UNDER NWS
QUALITY CONTROL.  THEY ALSO DO NOT REPORT WEATHER SUCH
AS PRECIPITATION OR FOG.

IAZ001>003-012>014-020>022-031>034-043>046-081800-
   NORTHWEST IOWA

CITY           SKY/WX    TMP DP  RH WIND       PRES   REMARKS
SIOUX CITY     SUNNY     17   5  59 NW24G30   30.60R WCI  -1
STORM LAKE *   FLURRIES  14   7  73 NW21G28   30.51R WCI  -4
$$

IAZ055>058-069>071-079>083-090>094-081800-
   SOUTHWEST IOWA

CITY           SKY/WX    TMP DP  RH WIND       PRES   REMARKS
$$

IAZ047>049-059>061-072>074-084-081800-
   CENTRAL IOWA

CITY           SKY/WX    TMP DP  RH WIND       PRES   REMARKS
GRINNELL*      CLOUDY    17  10  74 W20G26    30.48R WCI   0
PERRY *          N/A     18  10  72 W17G26    30.53S WCI   3
$$

IAZ004>006-015-016-023>025-035-036-081800-
   NORTH CENTRAL IOWA

CITY           SKY/WX    TMP DP  RH WIND       PRES   REMARKS
ESTHERVILLE    CLOUDY    18  10  71 NW23G31   30.46R WCI   0
IOWA FALLS *   LGT SNOW  18  12  79 W23       30.45R WCI   0
$$

IAZ007>011-017>019-026>030-037>042-050>054-066-081800-
   NORTHEAST IOWA

CITY           SKY/WX    TMP DP  RH WIND       PRES   REMARKS
CEDAR RAPIDS   FLURRIES  18  13  80 W24G32    30.42R WCI   0
CHARLES CITY * FLURRIES  19  14  79 NW20G25   30.38S WCI   4
DUBUQUE        CLOUDY    17  12  80 W15       30.34R WCI   2
$$

IAZ064-065-067-068-078-081800-
   EAST CENTRAL IOWA

CITY           SKY/WX    TMP DP  RH WIND       PRES   REMARKS
DAVENPORT      FLURRIES  18  10  71 W23G31    30.41R WCI   0
IOWA CITY      FLURRIES  19  10  68 W18       30.46S WCI   4
QUAD CITIES    CLOUDY    19   9  65 W21G26    30.42R WCI   3
$$

IAZ062-063-075>077-085>089-095>099-081800-
   SOUTHEAST IOWA

CITY           SKY/WX    TMP DP  RH WIND       PRES   REMARKS
$$

ABBREVIATIONS USED IN REMARKS
   TC - TEMPERATURES IN CELSIUS
  WCI - WIND CHILL INDEX
   HX - HEAT INDEX
  VSB - VISIBILITY
$$





USA.gov is the U.S. government's official web portal to all federal, state and local government web resources and services.